Date,TemperatureHighF,TemperatureAvgF,TemperatureLowF,DewpointHighF,DewpointAvgF,DewpointLowF,HumidityHigh,HumidityAvg,HumidityLow,PressureMaxIn,PressureMinIn,WindSpeedMaxMPH,WindSpeedAvgMPH,GustSpeedMaxMPH,PrecipitationSumIn
2013-1-1,56.1,40.8,27.0,32.0,23.5,19.4,86,55,27,30.03,29.83,6,1,11,0.00
2013-1-2,61.0,43.4,0.0,28.4,23.9,21.2,83,51,25,29.94,29.71,6,1,12,0.00
2013-1-3,62.4,46.0,30.4,28.4,25.0,21.2,77,48,25,29.94,29.80,11,3,20,0.00
2013-1-4,58.6,47.2,36.3,26.6,24.7,21.2,58,42,28,30.06,29.88,11,4,18,0.00
2013-1-5,63.3,45.2,29.1,33.8,23.4,17.6,80,46,18,30.12,29.94,3,0,5,0.00
2013-1-6,67.5,48.3,33.8,24.8,19.5,12.2,55,36,15,30.00,29.68,9,2,15,0.00
2013-1-7,61.2,45.2,30.2,28.4,22.4,17.6,66,42,25,29.74,29.59,5,2,10,0.00
2013-1-8,63.3,46.4,29.7,30.2,22.4,17.6,69,41,24,29.91,29.68,4,1,6,0.00
2013-1-9,71.1,50.9,31.5,30.2,17.2,8.6,55,31,12,30.00,29.77,11,2,19,0.00
2013-1-10,68.0,49.7,0.0,33.8,19.7,14.0,44,32,17,29.85,29.56,8,2,18,0.00
2013-1-11,56.1,42.5,0.0,33.8,21.2,6.8,82,46,24,29.88,29.65,9,2,15,0.00
2013-1-12,53.4,35.7,23.2,19.4,9.7,3.2,55,36,19,29.91,29.77,6,1,11,0.00
2013-1-13,54.0,34.7,0.0,19.4,8.0,1.4,51,35,18,29.91,29.71,6,1,10,0.00
2013-1-14,51.8,33.4,19.9,15.8,4.1,-5.8,50,31,18,30.00,29.83,7,2,13,0.00
2013-1-15,49.5,34.0,0.0,12.2,0.8,-4.0,45,26,16,30.12,29.97,5,1,10,0.00
2013-1-16,60.4,40.5,22.1,12.2,5.7,-4.0,40,25,14,30.12,29.91,4,1,7,0.00
2013-1-17,70.3,51.7,33.1,19.4,12.7,8.6,40,23,12,30.00,29.83,10,3,24,0.00
2013-1-18,74.7,50.5,0.0,26.6,14.7,10.4,39,25,11,29.97,29.80,6,1,10,0.00
2013-1-19,74.8,54.5,34.2,26.6,17.4,12.2,41,25,11,30.03,29.83,4,1,8,0.00
2013-1-20,77.2,55.3,0.0,33.8,21.6,6.8,46,28,15,29.97,29.71,4,1,6,0.00
2013-1-21,78.6,57.8,0.0,33.8,26.0,19.4,51,31,18,29.91,29.71,4,1,8,0.00
2013-1-22,81.5,60.3,40.5,37.4,27.7,23.0,53,31,15,29.97,29.77,4,1,9,0.00
2013-1-23,86.2,61.5,42.6,35.6,27.5,23.0,47,30,14,30.00,29.77,5,1,10,0.00
2013-1-24,66.0,58.3,0.0,48.2,39.1,28.4,74,49,34,30.00,29.88,2,0,6,0.05
2013-1-25,79.5,63.8,49.1,48.2,44.1,39.2,84,53,25,29.97,29.71,2,0,6,0.00
2013-1-26,70.2,61.2,0.0,59.0,51.1,42.8,95,70,37,29.80,29.65,6,1,17,0.79
2013-1-27,69.8,58.1,47.8,53.6,46.2,39.2,96,67,35,29.83,29.68,4,1,11,0.00
2013-1-28,64.8,51.9,43.2,48.2,36.8,24.8,78,56,35,29.80,29.71,8,3,17,0.04
2013-1-29,55.8,45.5,37.0,33.8,24.1,17.6,74,45,25,29.97,29.80,8,4,16,0.00
2013-1-30,62.1,45.8,30.4,30.2,21.8,15.8,77,43,19,30.09,29.94,4,1,8,0.00
2013-1-31,64.8,46.4,31.5,30.2,25.4,17.6,70,46,24,30.03,29.85,4,1,8,0.00